SCP
0 0 0 0 0 0 0 0 0 0 0 0 0 0 0 0 0 0 0 0 0 0 0 0 0 0 0 0 0 0 0 0 0 0 0 0 0 0 0 0 0 0 0 0
0 0 0 0 0 0 0 0 0 0 0 0 0 0 0 0 0 0 0 0 0 0 0 0 0 0 0 0 0 0 0 0 0 0 0 0 0 0 0 0 0 0 0 0
0 0 0 0 0 0 0 0 0 0 0 0 0 0 0 0 0 0 0 0 0 0 0 0 0 0 0 0 0 0 0 0 0 0 0 0 0 0 0 0 0 0 0 0
0 0 0 0 0 0 0 0 0 0 0 0 0 0 0 0 0 0 0 0 0 0 0 0 0 0 0 0 0 0 0 0 0 0 0 0 0 0 0 0 0 0 0 0
0 0 0 0 0 0 0 0 0 0 0 0 0 0 0 0 0 0 0 0 0 0 0 0 0 0 0 0 0 0 0 0 0 0 0 0 0 0 0 0 0 0 0 0
0 0 0 0 0 0 0 0 0 0 0 0 0 0 0 0 0 0 0 0 0 0 0 0 0 0 0 0 0 0 0 0 0 0 0 0 0 0 0 0 0 0 0 0
0 0 0 0 0 0 0 0 0 0 0 0 0 0 0 0 0 0 0 0 0 0 0 0 0 0 0 0 0 0 0 0 0 0 0 0 0 0 0 0 0 0 0 0
0 0 0 0 0 0 0 0 0 0 0 0 0 0 0 0 0 0 0 0 0 0 0 0 0 0 0 0 0 0 0 0 0 0 0 0 0 0 0 0 0 0 0 0
0 0 0 0 0 0 0 0 0 0 0 0 0 0 0 0 0 0 0 0 0 0 0 0 0 0 0 0 0 0 0 0 0 0 0 0 0 0 0 0 0 0 0 0
0 0 0 0 0 0 0 0 0 0 0 0 0 0 0 0 0 0 0 0 0 0 0 0 0 0 0 0 0 0 0 0 0 0 0 0 0 0 0 0 0 0 0 0
0 0 0 0 0 0 0 0 0 0 0 0 0 0 0 0 0 0 0 0 0 -0 -0 -0 0 0 0 0 0 0 0 0 0 0 0 0 0 0 0 0 0 0 0 0
0 0 0 0 0 0 0 0 0 0 0 0 0 0 0 0 0 0 0 0 0 -0 -0 -0 -0 0 0 0 0 0 0 0 0 0 0 0 0 0 0 0 0 0 0 0
0 0 0 0 0 0 0 0 0 0 0 0 0 0 0 0 0 0 -0 -0 -0 -0 -0 -0 -0 -0 0 0 0 0 0 0 0 0 0 0 0 0 0 0 0 0 0 0
0 0 0 0 0 0 0 0 0 0 0 0 0 0 0 0 0 -0 -0 -0 -0 -0 0 0 0 0 0 0 0 0 0 0 0 0 0 0 0 0 0 0 0 0 0 0
0 0 0 0 0 0 0 0 0 0 0 0 0 0 0 0 -0 -0 -0 -0 -0 0 0 0 0 0 0 0 0 0 0 0 0 0 0 0 0 0 0 0 0 0 0 0
0 0 0 0 0 0 0 0 0 0 0 0 0 0 0 0 -0 -0 -0 0 0 0 0 0 0 0 0 0 0 0 0 0 0 0 0 0 0 0 0 0 0 0 0 0
0 0 0 0 0 0 0 0 0 0 0 0 0 0 0 -0 -0 0 0 0 0 0 0 0 0 0 0 0 0 0 0 0 0 0 0 0 0 0 0 0 0 0 0 0
0 0 0 0 0 0 0 0 0 0 0 0 0 0 0 0 0 0 0 0 0 0 0 0 0 0 0 0 0 0 0 0 0 0 0 0 0 0 0 0 0 0 0 0
0 0 0 0 0 0 0 0 0 0 0 0 0 0 0 0 0 0 0 0 0 0 0 0 0 0 0 0 0 0 0 0 0 0 0 0 0 0 0 0 0 0 0 0
0 0 0 0 0 0 0 0 0 0 0 0 0 0 0 0 0 0 0 0 0 0 0 0 0 0 0 0 0 0 0 0 0 0 0 0 0 0 0 0 0 0 0 0
0 0 0 0 0 0 0 0 0 0 0 0 0 0 0 0 0 0 0 0 0 0 0 0 0 0 0 0 0 0 0 0 0 0 0 0 0 0 0 0 0 0 0 0
0 0 0 0 0 0 0 0 0 0 0 0 0 0 0 0 0 0 0 0 0 0 0 0 0 0 0 0 0 0 0 0 0 0 0 0 0 0 0 0 0 0 0 0
0 0 0 0 0 0 0 0 0 0 0 -0 0 0 0 0 0 0 0 0 0 0 0 0 0 0 0 0 0 0 0 0 0 0 0 0 0 0 0 0 0 0 0 0
0 0 0 0 0 0 0 0 0 0 0 0 0 0 0 0 0 0 0 0 0 0 0 0 0 0 0 0 0 0 0 0 0 0 0 0 0 0 0 0 0 0 0 0
0 0 0 0 0 0 0 0 0 0 0 0 0 0 0 0 0 0 0 0 0 0 0 0 0 0 0 0 0 0 0 0 0 0 0 0 0 0 0 0 0 0 0 0
0 0 0 0 0 0 0 0 0 0 0 0 0 0 0 0 0 0 0 0 0 0 0 0 0 0 0 0 0 0 0 0 0 0 0 0 0 0 0 0 0 0 0 0
Wind_Speed
2 2 3 7 7 8 5 3 3 3 2 9 11 9 7 6 6 4 5 5 4 4 4 4 4 5 5 4 4 4 4 3 2 2 1 2 1 1 1 1 1 1 1 1
4 4 9 8 6 3 3 3 2 1 4 7 8 7 4 5 4 3 3 4 2 2 2 3 4 4 4 4 4 4 3 2 2 1 1 1 1 1 0 1 2 1 2 2
4 7 4 4 4 4 3 3 3 3 4 7 5 4 3 2 2 1 2 2 2 4 5 5 4 4 4 5 5 4 4 3 2 1 1 2 2 2 2 2 2 3 3 3
3 5 3 4 5 2 3 2 3 4 5 3 3 1 3 3 2 1 1 2 4 4 4 5 5 6 6 6 5 5 4 3 2 2 2 1 1 1 2 2 2 4 3 3
5 3 3 3 4 1 2 1 4 6 6 4 4 1 3 3 3 4 4 5 4 4 5 5 6 7 6 5 4 4 3 3 2 2 2 2 1 2 2 2 3 4 4 4
5 3 1 3 3 1 6 6 7 7 5 3 3 1 4 3 4 4 5 6 5 4 5 5 5 3 2 3 3 3 3 2 2 2 2 2 3 3 3 4 4 3 3 3
6 4 2 1 3 3 5 5 4 6 5 1 3 1 5 6 6 6 6 6 6 4 3 3 3 3 2 3 3 2 2 1 1 1 2 2 3 3 4 4 4 4 3 3
2 5 2 1 2 2 1 6 6 3 3 2 2 3 7 7 6 6 5 4 3 3 2 2 3 3 2 2 3 2 2 1 1 1 3 3 3 2 3 4 3 4 3 4
3 3 3 1 1 4 2 1 5 7 4 2 2 4 7 4 5 5 4 4 3 2 2 3 4 4 4 3 3 2 2 1 2 2 3 3 3 3 3 4 3 3 4 4
4 1 4 4 3 3 4 4 5 5 5 2 2 3 4 5 5 4 4 4 4 3 3 4 4 4 3 2 2 1 1 0 1 2 2 2 3 4 4 3 4 4 5 4
4 3 4 5 2 2 4 3 4 4 5 6 3 4 6 8 7 6 6 6 5 4 4 4 3 2 2 2 1 1 1 1 2 2 3 3 4 4 4 4 5 5 5 5
2 5 1 5 4 2 2 2 5 4 0 4 5 4 4 7 6 6 6 5 5 5 4 4 3 2 1 1 1 2 2 2 3 3 3 4 4 4 4 5 6 5 6 6
4 6 4 8 9 3 1 2 4 6 5 4 5 4 2 4 4 5 6 5 5 5 4 3 1 1 0 1 2 2 3 3 3 3 3 4 5 5 5 6 6 6 6 6
6 5 6 5 7 4 3 2 2 6 4 3 6 6 4 5 5 5 5 6 5 5 4 3 1 1 1 2 2 3 3 3 4 3 4 5 5 6 6 6 6 6 6 6
5 2 2 4 4 2 3 2 2 5 7 7 8 9 8 8 8 6 5 6 6 4 3 2 1 1 2 2 3 3 4 4 4 4 4 5 6 6 6 6 6 7 7 8
4 2 2 5 4 4 3 1 2 4 5 8 9 5 6 5 4 4 5 6 5 4 3 2 1 1 2 3 3 3 4 5 4 4 5 6 6 6 6 7 7 7 7 7
2 4 2 3 6 3 2 2 3 3 4 9 7 7 5 4 6 6 6 6 6 4 3 2 2 2 3 3 3 3 4 4 4 5 6 6 6 6 7 8 7 8 7 7
6 4 4 1 4 1 7 2 6 7 3 5 7 6 7 7 6 5 6 7 6 4 3 2 2 2 3 2 3 3 4 4 5 5 6 6 6 7 7 7 8 8 7 7
6 7 4 3 1 4 3 2 4 7 2 3 7 7 6 6 4 0 4 6 6 4 4 3 3 2 2 3 3 3 4 5 5 6 7 7 7 8 8 9 9 8 7 7
4 5 5 3 2 4 7 4 4 9 2 3 7 7 7 6 2 4 5 5 4 3 3 2 2 1 2 3 3 3 5 5 6 7 7 7 7 7 9 9 9 7 7 7
2 2 3 4 3 6 7 4 4 3 8 6 7 8 7 6 7 6 6 5 4 3 3 2 0 1 3 3 2 3 5 6 7 7 7 8 8 8 8 8 7 8 7 7
6 4 4 4 3 8 7 4 6 9 6 7 7 8 7 6 6 6 6 5 4 3 2 1 0 2 3 3 2 4 6 6 6 6 7 8 8 8 8 8 8 7 7 6
3 8 7 8 9 9 6 8 7 8 8 8 8 8 9 8 7 7 6 5 3 3 2 1 1 3 4 3 2 4 6 6 6 7 8 8 9 8 7 7 8 7 6 5
4 2 3 3 6 5 5 5 6 7 8 8 8 9 9 8 8 7 6 4 3 2 2 2 1 3 4 4 4 4 5 5 5 7 8 7 8 9 8 6 5 5 5 5
5 2 2 3 4 0 2 5 8 7 7 7 7 8 9 10 8 7 6 5 4 3 2 2 2 3 4 4 4 5 4 4 5 7 7 7 7 7 7 7 5 6 5 5
3 3 3 5 7 5 6 7 8 9 9 10 9 8 8 9 9 8 6 5 5 4 3 2 2 3 3 3 4 4 4 4 5 6 7 6 6 6 6 6 8 8 8 9
Wind_Direction
308 81 259 251 223 219 246 271 304 323 72 81 83 77 58 37 49 71 95 95 91 110 140 131 126 123 111 101 96 90 87 79 73 59 37 32 1 336 347 319 274 246 257 241
2 287 259 258 261 250 274 259 262 34 60 85 91 82 71 59 43 30 60 85 102 145 156 144 140 140 134 135 132 128 128 125 114 119 137 168 222 278 275 339 323 294 274 255
217 247 288 319 314 305 302 231 218 162 78 67 87 35 3 8 45 51 102 137 184 193 187 172 165 167 163 165 167 161 165 154 147 129 77 33 24 8 1 341 308 299 284 268
261 265 306 320 290 265 284 245 158 125 98 47 45 264 304 316 334 318 206 218 219 220 200 187 181 184 189 191 179 173 174 172 170 139 118 126 138 262 263 265 277 292 288 276
271 291 313 297 273 178 201 93 103 109 101 69 17 86 296 314 303 290 267 244 236 223 207 201 198 195 195 186 174 176 174 181 191 180 170 167 215 237 263 282 299 299 293 285
257 269 270 272 310 104 119 78 56 58 71 54 329 43 295 263 252 274 277 265 243 223 217 205 208 184 167 149 146 153 159 201 224 217 212 209 233 252 277 291 293 291 289 288
317 313 303 322 349 2 83 86 42 21 30 305 300 345 263 257 247 248 260 264 257 228 216 202 191 169 152 136 135 132 143 224 261 252 259 248 244 249 255 265 270 277 282 282
308 317 303 238 203 199 130 126 146 167 184 233 296 261 264 265 264 264 260 259 260 250 221 172 165 137 116 115 113 115 131 208 270 274 280 285 281 268 263 261 260 261 256 260
191 272 319 324 294 132 96 71 150 124 109 116 251 281 295 269 263 256 238 227 226 215 158 136 121 110 110 112 117 132 141 237 282 285 289 294 292 282 278 279 273 268 267 274
152 222 317 321 16 28 133 141 85 98 132 137 205 238 241 238 232 229 208 192 194 172 128 121 117 118 120 124 120 111 117 242 291 304 300 303 292 285 280 283 283 276 274 276
105 116 319 351 17 339 18 44 101 116 146 142 174 255 224 203 198 187 188 183 175 153 138 137 133 127 120 99 81 46 2 336 316 309 303 307 299 295 292 284 279 278 275 276
122 114 316 287 273 207 187 195 139 123 24 127 135 258 250 181 182 172 177 174 155 142 141 140 134 114 84 41 357 341 323 312 296 291 297 296 295 298 298 291 285 281 277 275
110 96 41 345 340 339 266 223 151 130 112 122 135 239 248 142 152 164 162 155 144 139 136 130 113 88 359 316 315 307 303 297 292 295 303 303 300 297 292 288 286 283 279 278
107 108 151 196 238 257 267 270 145 120 128 152 171 173 180 166 170 181 169 157 150 144 143 141 143 276 282 286 289 292 297 290 296 300 300 295 289 284 283 284 284 282 279 277
99 124 232 244 259 277 267 252 180 147 162 155 174 171 195 192 187 187 168 147 134 135 140 147 181 246 271 284 289 291 293 295 297 299 295 286 283 284 286 287 285 282 279 281
98 137 8 325 315 322 321 337 112 115 120 130 139 177 203 185 158 145 143 139 139 149 159 168 195 248 272 278 281 291 293 292 294 298 293 289 292 293 291 289 286 284 280 277
145 135 104 290 308 4 320 250 115 103 137 147 167 186 170 156 161 164 159 152 156 168 179 198 232 246 259 268 269 280 285 295 306 302 297 295 295 295 292 294 296 287 282 277
154 134 135 227 9 302 251 238 116 98 63 118 129 152 163 165 169 175 169 159 166 176 190 215 233 248 258 265 276 284 298 307 305 301 300 298 298 297 296 294 290 285 280 277
148 142 131 126 223 282 288 282 146 121 76 139 136 146 146 137 102 164 193 170 175 184 192 205 215 221 250 278 286 304 311 310 308 303 301 299 298 299 301 299 294 289 283 281
84 105 122 147 173 241 245 243 142 101 119 207 150 151 154 140 123 241 204 176 174 176 179 190 213 237 285 284 295 316 310 309 303 298 297 297 296 296 297 295 292 287 283 279
78 82 148 184 208 254 239 216 119 137 221 201 162 159 157 167 193 198 175 177 172 166 169 165 144 286 277 277 302 313 307 298 291 295 300 301 300 297 293 292 290 292 291 290
177 169 198 165 188 249 231 172 173 201 190 168 160 163 159 166 159 154 163 166 161 157 163 150 253 291 284 283 300 306 298 289 295 302 306 306 304 303 308 301 298 297 297 296
183 187 184 184 209 227 201 190 193 159 163 172 166 168 152 149 159 163 166 168 172 169 190 211 239 291 295 290 282 291 288 295 305 311 310 307 308 306 302 299 300 303 302 296
296 185 146 234 258 232 200 179 171 169 168 170 162 159 151 153 160 162 167 177 183 194 205 220 262 297 295 290 287 277 288 301 310 311 309 308 309 309 309 305 299 298 299 297
261 350 3 289 285 306 198 187 180 172 156 152 153 155 156 152 160 166 173 183 191 200 211 210 238 268 279 288 292 294 303 315 315 310 306 308 307 304 307 306 298 291 278 268
247 191 184 234 232 191 216 208 173 163 166 163 157 158 162 160 164 163 172 183 186 193 200 215 249 264 276 286 294 300 306 311 312 311 311 308 307 307 306 308 311 303 289 288